Radford, VA

4:55 PM EST on February 21, 2017 (GMT -0500)
New River Valley

Weather History for KPSK - September, 2013

Change the Weather History Date:

Saturday, September 7, 2013

  Actual Average (KBCB) Record (KBCB)
Temperature  
Mean Temperature 68 °F -  
Max Temperature 82 °F 78 °F 95 °F (1954)
Min Temperature 55 °F 52 °F 37 °F (1988)
Cooling Degree Days 4    
Growing Degree Days 18 (Base 50)    
Moisture  
Dew Point 57 °F    
Average Humidity 75    
Maximum Humidity 100    
Minimum Humidity 32    
Precipitation  
Precipitation 0.00 in - - ()
Sea Level Pressure  
Sea Level Pressure 30.15 in    
Wind  
Wind Speed 1 mph (West)    
Max Wind Speed 9 mph    
Max Gust Speed -    
Visibility 9 miles    
Events      
Averages and records for this station are not official NWS values.
T = Trace of Precipitation, MM = Missing Value Source: NWS Daily Summary

Daily Weather History Graph

Daily Weather History Graph

Search for Another Location

Airport or City:

Trip Planner

Search our weather history database for the weather conditions in past years. The results will help you decide how hot, cold, wet, or windy it might be!

Date:

Astronomy

Sep. 07, 2013 Rise Set
Actual Time 6:58 AM EDT 7:42 PM EDT
Civil Twilight 6:32 AM EDT 8:08 PM EDT
Nautical Twilight 6:01 AM EDT 8:39 PM EDT
Astronomical Twilight 5:28 AM EDT 9:11 PM EDT
Moon 9:06 AM EDT (9/7) 8:44 PM EDT (9/7)
Length of Visible Light 13h 36m
Length of Day
12h 43m
Waxing Crescent, 5% of the Moon is Illuminated
Sep 7
Waxing Crescent
Sep 12
First Quarter
Sep 19
Full
Sep 26
Last Quarter
Oct 4
New

Hourly Weather History & Observations

Time (EDT) Temp. Heat Index Dew Point Humidity Pressure Visibility Wind Dir Wind Speed Gust Speed Precip Events Conditions
12:15 AM 62.6 °F - 60.8 °F 94% 30.22 in 10.0 mi Calm Calm - N/A   Overcast
12:35 AM 62.6 °F - 60.8 °F 94% 30.22 in 10.0 mi Calm Calm - N/A   Mostly Cloudy
12:55 AM 62.6 °F - 60.8 °F 94% 30.21 in 10.0 mi Calm Calm - N/A   Mostly Cloudy
1:15 AM 62.6 °F - 60.8 °F 94% 30.21 in 10.0 mi Calm Calm - N/A   Overcast
1:35 AM 62.6 °F - 60.8 °F 94% 30.21 in 10.0 mi Calm Calm - N/A   Overcast
1:55 AM 60.8 °F - 60.8 °F 100% 30.21 in 10.0 mi Calm Calm - N/A   Scattered Clouds
2:15 AM 60.8 °F - 60.8 °F 100% 30.20 in 7.0 mi Calm Calm - N/A   Scattered Clouds
2:35 AM 60.8 °F - 60.8 °F 100% 30.20 in 7.0 mi Calm Calm - N/A   Unknown
2:55 AM 60.8 °F - 60.8 °F 100% 30.20 in 7.0 mi Calm Calm - N/A   Unknown
3:15 AM 60.8 °F - 60.8 °F 100% 30.20 in 10.0 mi Calm Calm - N/A   Unknown
3:35 AM 60.8 °F - 60.8 °F 100% 30.19 in 10.0 mi Calm Calm - N/A   Mostly Cloudy
3:55 AM 59.0 °F - 59.0 °F 100% 30.19 in 7.0 mi Calm Calm - N/A   Mostly Cloudy
4:15 AM 57.2 °F - 57.2 °F 100% 30.19 in 5.0 mi Calm Calm - N/A   Scattered Clouds
4:35 AM 57.2 °F - 57.2 °F 100% 30.19 in 5.0 mi Calm Calm - N/A   Mist
4:55 AM 57.2 °F - 57.2 °F 100% 30.18 in 5.0 mi Calm Calm - N/A   Mist
5:15 AM 57.2 °F - 57.2 °F 100% 30.19 in 5.0 mi Calm Calm - N/A   Mist
5:35 AM 55.4 °F - 55.4 °F 100% 30.19 in 7.0 mi Calm Calm - N/A   Unknown
5:55 AM 55.4 °F - 55.4 °F 100% 30.19 in - Calm Calm - N/A   Unknown
6:15 AM 55.4 °F - 55.4 °F 100% 30.19 in - Calm Calm - N/A   Mostly Cloudy
6:35 AM 55.4 °F - 55.4 °F 100% 30.19 in - Calm Calm - N/A   Unknown
6:55 AM 55.4 °F - 55.4 °F 100% 30.20 in - Calm Calm - N/A   Unknown
7:15 AM 55.4 °F - 55.4 °F 100% 30.20 in - Calm Calm - N/A   Unknown
7:35 AM 55.4 °F - 55.4 °F 100% 30.21 in - Calm Calm - N/A   Unknown
7:55 AM 55.4 °F - 55.4 °F 100% 30.20 in - Calm Calm - N/A   Unknown
8:15 AM 57.2 °F - 57.2 °F 100% 30.20 in - Calm Calm - N/A   Unknown
8:35 AM 57.2 °F - 57.2 °F 100% 30.20 in - Calm Calm - N/A   Unknown
8:55 AM 57.2 °F - 57.2 °F 100% 30.20 in - Calm Calm - N/A   Overcast
9:15 AM 59.0 °F - 59.0 °F 100% 30.20 in 1.5 mi Calm Calm - N/A   Overcast
9:35 AM 60.8 °F - 60.8 °F 100% 30.19 in 10.0 mi Calm Calm - N/A   Scattered Clouds
9:55 AM 62.6 °F - 62.6 °F 100% 30.19 in 10.0 mi Calm Calm - N/A   Clear
10:15 AM 64.4 °F - 64.4 °F 100% 30.19 in 10.0 mi Calm Calm - N/A   Scattered Clouds
10:35 AM 66.2 °F - 62.6 °F 88% 30.19 in 10.0 mi West 4.6 mph - N/A   Scattered Clouds
10:55 AM 69.8 °F - 62.6 °F 78% 30.19 in 10.0 mi WSW 4.6 mph - N/A   Clear
11:15 AM 71.6 °F - 64.4 °F 78% 30.18 in 10.0 mi SW 3.5 mph - N/A   Clear
11:35 AM 71.6 °F - 62.6 °F 73% 30.18 in 10.0 mi Calm Calm - N/A   Clear
11:55 AM 73.4 °F - 62.6 °F 69% 30.17 in 10.0 mi SW 5.8 mph - N/A   Clear
12:15 PM 75.2 °F - 60.8 °F 61% 30.16 in 10.0 mi Calm Calm - N/A   Clear
12:35 PM 75.2 °F - 59.0 °F 57% 30.15 in 10.0 mi West 3.5 mph - N/A   Clear
12:55 PM 77.0 °F - 55.4 °F 47% 30.14 in 10.0 mi Calm Calm - N/A   Clear
1:15 PM 78.8 °F - 57.2 °F 47% 30.14 in 10.0 mi West 5.8 mph - N/A   Clear
1:35 PM 78.8 °F - 57.2 °F 47% 30.13 in 10.0 mi WSW 4.6 mph - N/A   Clear
1:55 PM 78.8 °F - 57.2 °F 47% 30.13 in 10.0 mi NNW 4.6 mph - N/A   Clear
2:15 PM 80.6 °F 80.8 °F 57.2 °F 45% 30.11 in 10.0 mi North 3.5 mph - N/A   Clear
2:35 PM 80.6 °F 80.3 °F 53.6 °F 39% 30.10 in 10.0 mi West 3.5 mph - N/A   Clear
2:55 PM 80.6 °F 80.3 °F 53.6 °F 39% 30.10 in 10.0 mi West 9.2 mph - N/A   Clear
3:15 PM 80.6 °F - 51.8 °F 37% 30.10 in 10.0 mi West 6.9 mph - N/A   Clear
3:35 PM 82.4 °F - 51.8 °F 35% 30.09 in 10.0 mi WNW 5.8 mph - N/A   Clear
3:55 PM 80.6 °F - 48.2 °F 32% 30.09 in 10.0 mi West 5.8 mph - N/A   Clear
4:15 PM 80.6 °F - 48.2 °F 32% 30.08 in 10.0 mi West 5.8 mph - N/A   Clear
4:35 PM 80.6 °F - 50.0 °F 34% 30.08 in 10.0 mi West 3.5 mph - N/A   Clear
4:55 PM 80.6 °F - 48.2 °F 32% 30.08 in 10.0 mi WNW 6.9 mph - N/A   Clear
5:15 PM 80.6 °F - 50.0 °F 34% 30.08 in 10.0 mi NW 4.6 mph - N/A   Clear
5:35 PM 80.6 °F - 50.0 °F 34% 30.07 in 10.0 mi WNW 4.6 mph - N/A   Clear
5:55 PM 78.8 °F - 53.6 °F 42% 30.08 in 10.0 mi West 5.8 mph - N/A   Clear
6:15 PM 78.8 °F - 53.6 °F 42% 30.07 in 10.0 mi WNW 4.6 mph - N/A   Clear
6:35 PM 77.0 °F - 55.4 °F 47% 30.08 in 10.0 mi WNW 3.5 mph - N/A   Clear
6:55 PM 75.2 °F - 53.6 °F 47% 30.08 in 10.0 mi NW 4.6 mph - N/A   Clear
7:15 PM 73.4 °F - 55.4 °F 53% 30.08 in 10.0 mi Calm Calm - N/A   Clear
7:35 PM 71.6 °F - 57.2 °F 60% 30.08 in 10.0 mi Calm Calm - N/A   Clear
7:55 PM 69.8 °F - 55.4 °F 60% 30.09 in 10.0 mi Calm Calm - N/A   Clear
8:15 PM 68.0 °F - 55.4 °F 64% 30.09 in 10.0 mi Calm Calm - N/A   Clear
8:35 PM 66.2 °F - 55.4 °F 68% 30.09 in 10.0 mi West 3.5 mph - N/A   Clear
8:55 PM 66.2 °F - 55.4 °F 68% 30.09 in 10.0 mi West 4.6 mph - N/A   Clear
9:15 PM 68.0 °F - 55.4 °F 64% 30.10 in 10.0 mi West 4.6 mph - N/A   Clear
9:35 PM 68.0 °F - 55.4 °F 64% 30.09 in 10.0 mi WSW 4.6 mph - N/A   Clear
9:55 PM 66.2 °F - 55.4 °F 68% 30.09 in 10.0 mi West 3.5 mph - N/A   Clear
10:15 PM 64.4 °F - 55.4 °F 73% 30.09 in 10.0 mi West 3.5 mph - N/A   Clear
10:35 PM 64.4 °F - 57.2 °F 77% 30.09 in 10.0 mi WSW 3.5 mph - N/A   Clear
10:55 PM 62.6 °F - 57.2 °F 82% 30.08 in 10.0 mi Calm Calm - N/A   Clear
11:15 PM 62.6 °F - 57.2 °F 82% 30.09 in 10.0 mi Calm Calm - N/A   Clear
11:35 PM 62.6 °F - 57.2 °F 82% 30.09 in 10.0 mi Calm Calm - N/A   Clear
11:55 PM 62.6 °F - 57.2 °F 82% 30.09 in 10.0 mi Calm Calm - N/A   Clear